Location: �terpigny
(49.8910°N, 2.9249°E)
Time: 06:03:14
(UTC+00:00)

Cosmos 1908 - Pass Details

Date: 31 May 2022
Orbit: 505 x 523 km, 82.5° (Epoch: 03 July)

Event Time Altitude Azimuth Distance (km) Brightness Sun altitude
Rises 23:48:46 0° 342° (NNW) 2,622 8.2 -18.1°
Reaches altitude 10° 23:51:00 10° 334° (NNW) 1,731 6.8 -18.1°
Maximum altitude 23:54:28 35° 268° (W) 842 4.2 -18.1°
Enters shadow 23:55:22 30° 237° (WSW) 931 4.2 -18.1°
